Tracking 27126 objects as of 30-Mar-2023
HD Live streaming from Space Station
objects crossing your sky now

AMC-7 (GE-7)

Track AMC-7 (GE-7) now!
AMC-7 (GE-7) is classified as:


NORAD ID: 26495
Int'l Code: 2000-054B
Perigee: 36,096.5 km
Apogee: 36,133.2 km
Inclination: 3.9 °
Period: 1,452.5 minutes
Semi major axis: 42485 km
RCS: 22.9975 m2 (large)
Launch date: September 14, 2000
Source: SOCIETE EUROPEENNE DES SATELLITES (SES)
Launch site: FRENCH GUIANA (FRGUI)

Cable programming; 24 C-band; CONUS, Alaska, Hawaii, Caribbean
Your satellite tracking list
Your tracking list is empty




NASA's NSSDC Master Catalog

Two Line Element Set (TLE):
1 26495U 00054B   23088.81993984 -.00000276  00000-0  00000-0 0  9993
2 26495   3.8990  84.0465 0004324  12.7437 182.5990  0.99137239 82312
Source of the keplerian elements: AFSPC